Regional Weather Roundup
Issued by NWS

Home | Current Version | Previous Version | Graphics & Text | Print | Product List | Glossary On
Versions: 1 2 3 4 5 6 7 8 9 10 11 12 13 14 15 16 17 18 19 20 21 22 23 24 25 26 27 28 29 30 31 32 33 34 35 36 37 38 39 40 41 42 43 44 45 46 47 48 49 50
000
ASUS43 KOAX 042002
RWRNE

WEATHER ROUNDUP FOR NEBRASKA
NATIONAL WEATHER SERVICE OMAHA NE
200 PM CST SUN DEC 04 2016

NOTES: SATELLITE DATA IS BEING USED TO AUGMENT CLOUD COVER ABOVE
       12000 FEET.
       "FAIR" INDICATES FEW OR NO CLOUDS BELOW 12,000 FEET WITH NO
       SIGNIFICANT WEATHER AND/OR OBSTRUCTIONS TO VISIBILITY.

  * THESE STATIONS DO NOT REPORT WEATHER SUCH AS RAIN...SNOW OR FOG.

NEZ001>004-019>022-054>056-042100-
NEBRASKA PANHANDLE

CITY           SKY/WX    TMP DP  RH WIND       PRES   REMARKS
SCOTTSBLUFF    SUNNY     47  14  26 W16       29.82F
ALLIANCE       SUNNY     47  14  26 W21G29    29.81F
CHADRON        SUNNY     47  15  27 SW10      29.79F
KIMBALL        SUNNY     47  14  26 SW13      29.84F
SIDNEY         SUNNY     46  10  23 SW13      29.87F
$$

NEZ057>060-069>072-079>082-042100-
SOUTHWEST NEBRASKA

CITY           SKY/WX    TMP DP  RH WIND       PRES   REMARKS
NORTH PLATTE   SUNNY     50  17  27 W12       29.89F
IMPERIAL       SUNNY     49   9  19 W14G23    29.90F
LEXINGTON      SUNNY     50  19  29 W9        29.90F
MCCOOK         SUNNY     52  17  25 NW17G24   29.91F
OGALLALA       SUNNY     52  12  20 SW15G22   29.87F
$$

NEZ005>010-023>029-035>040-094-042100-
NORTH CENTRAL NEBRASKA

CITY           SKY/WX    TMP DP  RH WIND       PRES   REMARKS
VALENTINE      SUNNY     48  15  26 W17G24    29.83F
AINSWORTH      SUNNY     49  21  33 W12       29.83F
BROKEN BOW     SUNNY     50  22  33 W14       29.86F
O`NEILL        SUNNY     49  25  38 NW9       29.84F
ORD            SUNNY     50  21  32 W8        29.86F
$$

NEZ041-046>049-061>064-073>077-083>087-042100-
SOUTH CENTRAL NEBRASKA

CITY           SKY/WX    TMP DP  RH WIND       PRES   REMARKS
GRAND ISLAND   SUNNY     50  30  46 W12       29.90F
AURORA         SUNNY     48  33  55 W7        29.90F
HASTINGS       SUNNY     47  33  58 SW7       29.92F
HEBRON         SUNNY     36  32  85 W6        29.94F WCI  31
HOLDREGE       SUNNY     49  25  39 SW8       29.90F
KEARNEY *      SUNNY     50  25  37 W7        29.90F
YORK           SUNNY     45  37  76 SW6       29.91F
$$

NEZ011>018-030>034-042>045-042100-
NORTHEAST NEBRASKA

CITY           SKY/WX    TMP DP  RH WIND       PRES   REMARKS
NORFOLK        SUNNY     49  28  44 W9        29.85F
ALBION         SUNNY     50  25  36 W8        29.86F
BLAIR          SUNNY     37  33  86 SW9       29.89F WCI  30
FREMONT        SUNNY     40  34  79 S7        29.90F WCI  35
TEKAMAH        SUNNY     40  33  76 SW8       29.89F WCI  34
WAYNE          SUNNY     50  31  47 W12       29.85F
$$

NEZ050>053-065>068-078-088>093-042100-
SOUTHEAST NEBRASKA

CITY           SKY/WX    TMP DP  RH WIND       PRES   REMARKS
LINCOLN        SUNNY     36  32  85 W8        29.94F WCI  30
OMAHA EPPLEY   SUNNY     40  33  76 S7        29.91F
BEATRICE       MOSUNNY   38  34  85 W7        29.94F WCI  33
FALLS CITY     MOSUNNY   40  35  83 W10       29.95F WCI  33
NEBRASKA CITY  MOSUNNY   40  34  81 W9        29.93F WCI  33
PLATTSMOUTH    SUNNY     38  32  78 W10       29.91F WCI  31
$$

NEZ044-045-051>053-067-042100-
OMAHA AREA

CITY           SKY/WX    TMP DP  RH WIND       PRES   REMARKS
OMAHA EPPLEY   SUNNY     40  33  76 S7        29.91F
BLAIR          SUNNY     37  33  86 SW9       29.89F WCI  30
FREMONT        SUNNY     40  34  79 S7        29.90F WCI  35
MILLARD        SUNNY     37  32  82 W8        29.92F WCI  31
OFFUTT AFB     SUNNY     39  35  86 W7        29.91F WCI  34
PLATTSMOUTH    SUNNY     38  32  78 W10       29.91F WCI  31
WAHOO          FAIR      37  32  81 SW9       29.91F WCI  31
$$



USA.gov is the U.S. government's official web portal to all federal, state and local government web resources and services.